TimePDT,TemperatureF,Dew PointF,Humidity,Sea Level PressureIn,VisibilityMPH,Wind Direction,Wind SpeedMPH,Gust SpeedMPH,PrecipitationIn,Events,Conditions,WindDirDegrees,DateUTC
12:15 AM,55.4,53.6,94,29.91,9.0,South,8.1,-,N/A,,Overcast,190,2013-07-08 07:15:00
12:35 AM,55.4,53.6,94,29.91,9.0,SSE,8.1,-,N/A,,Unknown,160,2013-07-08 07:35:00
12:50 AM,55.4,53.6,94,29.91,9.0,South,9.2,-,N/A,,Unknown,190,2013-07-08 07:50:00
1:10 AM,55.4,53.6,94,29.91,10.0,SSW,9.2,-,N/A,,Unknown,200,2013-07-08 08:10:00
1:35 AM,55.4,51.8,88,29.90,10.0,South,8.1,-,N/A,,Unknown,190,2013-07-08 08:35:00
1:50 AM,55.4,51.8,88,29.90,10.0,SSE,6.9,-,N/A,,Unknown,160,2013-07-08 08:50:00
2:10 AM,55.4,53.6,94,29.90,10.0,South,8.1,-,N/A,,Unknown,180,2013-07-08 09:10:00
2:35 AM,55.4,53.6,94,29.91,9.0,SSW,9.2,-,N/A,,Unknown,200,2013-07-08 09:35:00
2:55 AM,55.4,51.8,88,29.91,9.0,North,-9999.0,-,N/A,,Unknown,0,2013-07-08 09:55:00
3:10 AM,55.4,51.8,88,29.91,9.0,South,10.4,-,N/A,,Unknown,190,2013-07-08 10:10:00
3:30 AM,55.4,51.8,88,29.91,10.0,South,9.2,-,N/A,,Unknown,190,2013-07-08 10:30:00
3:55 AM,55.4,51.8,88,29.91,10.0,SSE,8.1,-,N/A,,Unknown,160,2013-07-08 10:55:00
4:10 AM,55.4,51.8,88,29.91,9.0,South,9.2,-,N/A,,Unknown,180,2013-07-08 11:10:00
4:30 AM,55.4,51.8,88,29.91,10.0,SSE,10.4,-,N/A,,Unknown,160,2013-07-08 11:30:00
4:50 AM,55.4,51.8,88,29.92,9.0,SSE,8.1,-,N/A,,Unknown,150,2013-07-08 11:50:00
5:15 AM,55.4,51.8,88,29.92,10.0,SSE,6.9,-,N/A,,Unknown,160,2013-07-08 12:15:00
5:30 AM,55.4,51.8,88,29.92,10.0,South,8.1,-,N/A,,Unknown,170,2013-07-08 12:30:00
5:50 AM,55.4,51.8,88,29.92,9.0,SSE,6.9,-,N/A,,Unknown,150,2013-07-08 12:50:00
6:15 AM,55.4,50.0,82,29.93,8.0,SSE,6.9,-,N/A,,Unknown,150,2013-07-08 13:15:00
6:35 AM,55.4,51.8,88,29.93,8.0,SSE,8.1,-,N/A,,Overcast,160,2013-07-08 13:35:00
6:50 AM,55.4,50.0,82,29.94,8.0,SSE,8.1,-,N/A,,Overcast,150,2013-07-08 13:50:00
7:10 AM,55.4,50.0,82,29.94,8.0,SSE,8.1,-,N/A,,Overcast,150,2013-07-08 14:10:00
7:35 AM,55.4,51.8,88,29.95,8.0,South,10.4,-,N/A,,Overcast,170,2013-07-08 14:35:00
7:55 AM,55.4,51.8,88,29.96,8.0,SSE,9.2,-,N/A,,Overcast,160,2013-07-08 14:55:00
8:10 AM,55.4,51.8,88,29.96,8.0,South,9.2,-,N/A,,Overcast,170,2013-07-08 15:10:00
8:35 AM,55.4,51.8,88,29.96,7.0,SSE,9.2,-,N/A,,Overcast,160,2013-07-08 15:35:00
8:55 AM,55.4,51.8,88,29.97,8.0,North,-9999.0,-,N/A,,Overcast,0,2013-07-08 15:55:00
9:10 AM,55.4,51.8,88,29.97,9.0,North,-9999.0,-,N/A,,Overcast,0,2013-07-08 16:10:00
9:30 AM,55.4,51.8,88,29.98,9.0,SSE,10.4,-,N/A,,Overcast,160,2013-07-08 16:30:00
9:55 AM,57.2,51.8,82,29.98,9.0,North,-9999.0,-,N/A,,Overcast,0,2013-07-08 16:55:00
10:15 AM,57.2,51.8,82,29.98,7.0,SSW,10.4,-,N/A,,Unknown,210,2013-07-08 17:15:00
10:30 AM,57.2,51.8,82,29.98,8.0,SSW,8.1,-,N/A,,Overcast,210,2013-07-08 17:30:00
10:50 AM,57.2,53.6,88,29.99,9.0,SSW,8.1,-,N/A,,Overcast,210,2013-07-08 17:50:00
11:10 AM,57.2,53.6,88,29.99,10.0,South,9.2,-,N/A,,Overcast,190,2013-07-08 18:10:00
11:30 AM,59.0,53.6,82,29.99,9.0,SSW,10.4,-,N/A,,Overcast,200,2013-07-08 18:30:00
11:50 AM,57.2,53.6,88,30.00,8.0,SSW,10.4,-,N/A,,Overcast,200,2013-07-08 18:50:00
12:10 PM,57.2,53.6,88,30.00,9.0,SSW,10.4,-,N/A,,Overcast,200,2013-07-08 19:10:00
12:30 PM,59.0,53.6,82,30.00,10.0,SSW,10.4,-,N/A,,Overcast,200,2013-07-08 19:30:00
12:50 PM,59.0,53.6,82,30.00,9.0,South,10.4,-,N/A,,Overcast,190,2013-07-08 19:50:00
1:10 PM,59.0,53.6,82,30.00,9.0,South,10.4,16.1,N/A,,Overcast,180,2013-07-08 20:10:00
1:30 PM,59.0,53.6,82,30.00,9.0,South,9.2,-,N/A,,Overcast,170,2013-07-08 20:30:00
1:50 PM,59.0,53.6,82,30.00,10.0,South,9.2,-,N/A,,Overcast,180,2013-07-08 20:50:00
2:10 PM,59.0,53.6,82,30.00,9.0,South,8.1,-,N/A,,Overcast,180,2013-07-08 21:10:00
2:30 PM,59.0,53.6,82,29.99,10.0,South,8.1,-,N/A,,Overcast,190,2013-07-08 21:30:00
2:50 PM,59.0,53.6,82,29.99,10.0,South,9.2,-,N/A,,Mostly Cloudy,180,2013-07-08 21:50:00
3:10 PM,59.0,53.6,82,29.99,10.0,South,6.9,-,N/A,,Mostly Cloudy,170,2013-07-08 22:10:00
3:30 PM,59.0,53.6,82,29.99,10.0,South,10.4,-,N/A,,Scattered Clouds,190,2013-07-08 22:30:00
3:55 PM,59.0,53.6,82,29.98,10.0,South,10.4,-,N/A,,Partly Cloudy,190,2013-07-08 22:55:00
4:10 PM,59.0,55.4,88,29.98,10.0,South,9.2,-,N/A,,Scattered Clouds,190,2013-07-08 23:10:00
4:30 PM,59.0,53.6,82,29.99,10.0,South,8.1,-,N/A,,Mostly Cloudy,170,2013-07-08 23:30:00
4:50 PM,59.0,53.6,82,29.98,9.0,South,5.8,-,N/A,,Overcast,170,2013-07-08 23:50:00
5:10 PM,57.2,53.6,88,29.98,10.0,South,6.9,-,N/A,,Overcast,170,2013-07-09 00:10:00
5:30 PM,57.2,53.6,88,29.97,10.0,South,9.2,-,N/A,,Overcast,170,2013-07-09 00:30:00
5:50 PM,57.2,53.6,88,29.97,10.0,South,6.9,-,N/A,,Overcast,170,2013-07-09 00:50:00
6:15 PM,57.2,53.6,88,29.97,10.0,South,9.2,-,N/A,,Overcast,190,2013-07-09 01:15:00
6:30 PM,57.2,53.6,88,29.97,9.0,South,5.8,-,N/A,,Overcast,170,2013-07-09 01:30:00
6:50 PM,57.2,53.6,88,29.97,8.0,SSE,6.9,-,N/A,,Overcast,150,2013-07-09 01:50:00
7:10 PM,57.2,53.6,88,29.97,8.0,SE,6.9,-,N/A,,Overcast,140,2013-07-09 02:10:00
7:35 PM,57.2,53.6,88,29.97,8.0,SSE,5.8,-,N/A,,Overcast,150,2013-07-09 02:35:00
7:50 PM,55.4,53.6,94,29.98,7.0,SSE,5.8,-,N/A,,Overcast,150,2013-07-09 02:50:00
8:10 PM,55.4,53.6,94,29.97,6.0,South,6.9,-,N/A,,Overcast,170,2013-07-09 03:10:00
8:30 PM,57.2,53.6,88,29.98,7.0,South,9.2,-,N/A,,Overcast,170,2013-07-09 03:30:00
8:50 PM,55.4,53.6,94,29.98,7.0,SSE,8.1,-,N/A,,Overcast,160,2013-07-09 03:50:00
9:10 PM,55.4,53.6,94,29.98,9.0,South,9.2,-,N/A,,Unknown,170,2013-07-09 04:10:00
9:30 PM,55.4,53.6,94,29.98,8.0,SSE,6.9,-,N/A,,Unknown,160,2013-07-09 04:30:00
9:55 PM,55.4,53.6,94,29.99,9.0,South,5.8,-,N/A,,Unknown,190,2013-07-09 04:55:00
10:10 PM,55.4,53.6,94,30.00,8.0,SSE,5.8,-,N/A,,Unknown,160,2013-07-09 05:10:00
10:30 PM,55.4,53.6,94,30.00,7.0,South,6.9,-,N/A,,Unknown,170,2013-07-09 05:30:00
10:50 PM,55.4,53.6,94,30.01,6.0,South,3.5,-,N/A,,Mist,170,2013-07-09 05:50:00
11:15 PM,55.4,53.6,94,30.01,3.0,South,3.5,-,N/A,,Mist,190,2013-07-09 06:15:00
11:30 PM,55.4,53.6,94,30.01,2.0,SSE,4.6,-,N/A,,Mist,150,2013-07-09 06:30:00
11:50 PM,55.4,53.6,94,30.01,2.5,SW,3.5,-,N/A,,Mist,220,2013-07-09 06:50:00